Flag for U.S.A. Weather past 2 weeks in Port Angeles, Washington, U.S.A.

Now
59 °F

Passing clouds.


Feels Like: 59 °F
Forecast: 57 / 65 °F
Wind: No wind

Location: William R. Fairchild International Airport

Current Time: Aug 28, 2015 at 11:26:55 PM

Latest Report: Aug 28, 2015 at 10:53 PM


Visibility: 10 mi

Pressure: 29.73 "Hg

Humidity: 93%

Dew point: 57 °F

Location of Port AngelesLocation

Historic Weather in Port Angeles — Graph

°F

Port Angeles temperature yesterday

Maximum temperature yesterday: 70 °F (at 2:53 PM)
Minimum temperature yesterday: 55 °F (at 4:53 AM)
Average temperature yesterday: 64 °F

Past Weeks' High & Low Weather Summary

 TemperatureHumidityPressure
High85 °F (Aug 18, 5:53 PM)97% (Aug 17, 2:53 AM)30.29 "Hg (Aug 17, 2:53 AM)
Low47 °F (Aug 23, 5:53 AM)30% (Aug 18, 4:53 PM)29.78 "Hg (Aug 28, 9:53 PM)
Average62 °F68%30.04 "Hg
* Reported Aug 14 1:53 AM — Aug 28 9:53 PM, Port Angeles, Weather by CustomWeather, © 2015

Note: Actual official high and low records may vary slightly from our data, if they occured in-between our weather recording intervals... More about our weather records

Advertising

Port Angeles weather history for previous 24 hours

 ConditionsComfort  
Time TempWeatherWind HumidityBarometerVisibility
9:53 PM
Fri, Aug 28
59 °FPartly cloudy.No wind93%29.78 "Hg10 mi
8:53 PM60 °FPartly sunny.No wind83%29.80 "Hg10 mi
7:53 PM62 °FBroken clouds.No wind80%29.82 "Hg10 mi
6:53 PM66 °FSunny.No wind73%29.84 "Hg10 mi
5:53 PM67 °FSunny.5 mph71%29.85 "Hg10 mi
4:53 PM69 °FScattered clouds.6 mph61%29.88 "Hg10 mi
3:53 PM67 °FScattered clouds.7 mph68%29.90 "Hg10 mi
2:53 PM66 °FBroken clouds.3 mph70%29.93 "Hg10 mi
1:53 PM65 °FBroken clouds.7 mph76%29.94 "Hg10 mi
1:04 PM63 °FOvercast.No wind84%29.95 "Hg10 mi
12:53 PM62 °FOvercast.No wind86%29.96 "Hg10 mi
11:53 AM61 °FLow clouds.No wind90%29.96 "Hg10 mi
10:53 AM60 °FLow clouds.No wind93%29.96 "Hg10 mi
9:53 AM61 °FLow clouds.3 mph90%29.95 "Hg10 mi
8:53 AM59 °FLow clouds.6 mph93%29.95 "Hg10 mi
7:53 AM58 °FMostly cloudy.No wind93%29.95 "Hg10 mi
6:53 AM57 °FPassing clouds.No wind93%29.94 "Hg10 mi
5:53 AM58 °FMostly cloudy.No wind93%29.95 "Hg10 mi
4:53 AM58 °FLight rain. Fog.No wind93%29.96 "Hg5 mi
3:53 AM58 °FLight rain. Overcast.5 mph93%29.96 "Hg7 mi
2:53 AM59 °FLight rain. Fog.3 mph87%29.96 "Hg5 mi
1:53 AM59 °FMostly cloudy.6 mph84%29.95 "Hg10 mi
12:53 AM58 °FPassing clouds.8 mph87%29.97 "Hg10 mi
11:53 PM
Thu, Aug 27
60 °FPassing clouds.7 mph78%29.99 "Hg10 mi
Weather by CustomWeather, © 2015

See weather overviewHow to use our weather pages